sat.trackr.live / text

‹ back to catalog

STARLINK-31934

NORAD 59877 · 2024-098V

PAYLOAD ACTIVE UNKNOWN

§ Identity

Operator
Country
US
Launch date
2024-05-24
Launch site
AFETR
Launch vehicle
Mass (kg)
RCS (m²)

Purposes: comms

External: N2YO · Heavens-Above · Gunter

§ Orbital elements

Epoch: 2026-05-25T05:18:23.882400Z

Period
94.27 min
Inclination
42.9998°
Eccentricity
0.0001359
Mean motion
15.27574017 rev/d
Perigee alt
482.1 km
Apogee alt
484.0 km
Semi-major
6,861.2 km
B*
6.7367e-6
RAAN
202.0703°
Arg perigee
258.8598°
Mean anomaly
101.2101°
Rev number
11,359

§ Raw data

STARLINK-319341 59877U 24098V   26145.22110975 -.00000077  00000+0  67367-5 0  99922 59877  42.9998 202.0703 0001359 258.8598 101.2101 15.27574017113590

JSON: /api/v1/satellites/59877 · /tle

For live sub-satellite position, see the globe view (requires WebGL).

§ Visibility from observer

Set your observer location to see the next 7 days of passes ≥ 10°. The values pass through the URL so the page stays shareable.

No JS? Fill the form by hand. The geolocation button needs JavaScript.